Location: Unspecified
(41.1637°N, 24.2901°E)
Time: 23:01:12
(UTC+01:00)

ISS - Pass Details

Date: 11 November 2019
Orbit: 412 x 421 km, 51.6° (Epoch: 15 November)

Event Time Altitude Azimuth Distance (km) Brightness Sun altitude
Exits shadow 04:14:34 54° 24° (NNE) 518 -3.3 -21.0°
Maximum altitude 04:14:39 54° 32° (NNE) 516 -3.3 -21.0°
Drops below altitude 10° 04:17:58 10° 111° (ESE) 1,497 0.1 -20.4°
Sets 04:20:05 0° 116° (ESE) 2,356 1.3 -20.0°
